Weather History for Rochester, MN

Change the Weather History Date:

Wednesday, January 29, 2014

  Actual Average Record
Temperature  
Mean Temperature 10 °F 16 °F  
Max Temperature 27 °F 24 °F 44 °F (1944)
Min Temperature -7 °F 8 °F -33 °F (1951)
Degree Days  
Heating Degree Days 55 49  
Month to date heating degree days 1685 1434  
Since 1 July heating degree days 4979 4512  
Cooling Degree Days 0 0  
Month to date cooling degree days 0 0  
Year to date cooling degree days 0 0  
Moisture  
Dew Point 1 °F    
Average Humidity 64    
Maximum Humidity 72    
Minimum Humidity 55    
Precipitation  
Precipitation 0.00 in 0.02 in 1.20 in (1909)
Month to date precipitation 0.82 0.80  
Year to date precipitation 0.82 0.80  
Snow  
Snow 0.00 in 0.40 in 4.60 in (1947)
Month to date snowfall 12.0 11.2  
Since 1 July snowfall 26.4 30.6  
Snow Depth 12.00 in    
Sea Level Pressure  
Sea Level Pressure 29.94 in    
Wind  
Wind Speed 18 mph (SSW)    
Max Wind Speed 29 mph    
Max Gust Speed 37 mph    
Visibility 10 miles    
Events      
T = Trace of Precipitation, MM = Missing Value Source: NWS Daily Summary

Daily Weather History Graph

Daily Weather History Graph

Search for Another Location

Airport:

Trip Planner

Search our weather history database for the weather conditions in past years. The results will help you decide how hot, cold, wet, or windy it might be!

Date:

Astronomy

Jan. 29, 2014 Rise Set
Actual Time 7:30 AM CST 5:16 PM CST
Civil Twilight 6:59 AM CST 5:47 PM CST
Nautical Twilight 6:24 AM CST 6:22 PM CST
Astronomical Twilight 5:50 AM CST 6:55 PM CST
Moon 6:07 AM CST (1/29) 4:16 PM CST (1/29)
Length of Visible Light 10h 48m
Length of Day
9h 46m
Waning Crescent, 2% of the Moon is Illuminated
Jan 29
Waning Crescent
Jan 30
New
Feb 6
First Quarter
Feb 14
Full
Feb 22
Last Quarter

Hourly Weather History & Observations

Time (CST) Temp. Windchill Dew Point Humidity Pressure Visibility Wind Dir Wind Speed Gust Speed Precip Events Conditions
12:54 AM -6.0 °F -25.5 °F -13.0 °F 72% 30.19 in 10.0 mi WSW 12.7 mph - N/A   Clear
1:54 AM -5.1 °F -23.5 °F -13.0 °F 69% 30.18 in 10.0 mi WSW 11.5 mph - N/A   Clear
2:54 AM -5.1 °F -24.3 °F -13.0 °F 69% 30.18 in 10.0 mi WSW 12.7 mph - N/A   Clear
3:54 AM -4.0 °F -23.7 °F -13.0 °F 65% 30.16 in 10.0 mi WSW 13.8 mph - N/A   Clear
4:54 AM -4.0 °F -23.7 °F -11.9 °F 69% 30.14 in 10.0 mi WSW 13.8 mph - N/A   Clear
5:54 AM -2.9 °F -22.4 °F -11.9 °F 65% 30.12 in 10.0 mi WSW 13.8 mph - N/A   Clear
6:54 AM -2.0 °F -19.6 °F -11.9 °F 63% 30.09 in 10.0 mi SW 11.5 mph - N/A   Clear
7:54 AM -2.0 °F -19.6 °F -11.9 °F 63% 30.10 in 10.0 mi SW 11.5 mph - N/A   Clear
8:54 AM -0.0 °F -15.3 °F -9.9 °F 63% 30.09 in 10.0 mi SSW 9.2 mph - N/A   Clear
9:54 AM 3.9 °F -11.3 °F -6.0 °F 64% 30.08 in 10.0 mi SSW 10.4 mph - N/A   Clear
10:54 AM 9.0 °F -7.3 °F -2.0 °F 61% 30.05 in 10.0 mi SSW 13.8 mph - N/A   Clear
11:54 AM 12.0 °F -4.0 °F -0.0 °F 59% 30.03 in 10.0 mi South 15.0 mph - N/A   Clear
12:54 PM 15.1 °F -1.6 °F 3.0 °F 59% 29.98 in 10.0 mi South 18.4 mph - N/A   Clear
1:54 PM 18.0 °F 2.6 °F 6.1 °F 60% 29.91 in 10.0 mi South 17.3 mph - N/A   Clear
2:54 PM 19.9 °F 3.5 °F 8.1 °F 60% 29.87 in 10.0 mi South 21.9 mph - N/A   Clear
3:54 PM 21.9 °F 6.9 °F 10.0 °F 60% 29.83 in 10.0 mi South 19.6 mph 28.8 mph N/A   Clear
4:54 PM 23.0 °F 7.2 °F 10.0 °F 58% 29.79 in 10.0 mi South 23.0 mph 28.8 mph N/A   Clear
5:54 PM 21.9 °F 6.2 °F 10.0 °F 60% 29.77 in 10.0 mi South 21.9 mph 29.9 mph N/A   Clear
6:54 PM 24.1 °F 8.3 °F 10.9 °F 57% 29.75 in 10.0 mi South 24.2 mph 32.2 mph N/A   Clear
7:54 PM 26.1 °F 10.7 °F 12.0 °F 55% 29.73 in 10.0 mi South 25.3 mph - N/A   Mostly Cloudy
8:54 PM 27.0 °F 11.0 °F 12.9 °F 56% 29.71 in 10.0 mi South 28.8 mph 35.7 mph N/A   Mostly Cloudy
9:54 PM 26.1 °F 10.4 °F 12.9 °F 58% 29.69 in 10.0 mi South 26.5 mph 34.5 mph N/A   Overcast
10:54 PM 26.1 °F 10.1 °F 12.9 °F 58% 29.66 in 10.0 mi South 27.6 mph - N/A   Overcast
11:54 PM 25.0 °F 9.5 °F 12.9 °F 60% 29.64 in 10.0 mi South 24.2 mph - N/A   Partly Cloudy